Weather History for Kansas City, MO

Change the Weather History Date:

Wednesday, January 2, 2013

  Actual Average Record
Temperature  
Mean Temperature 24 °F -  
Max Temperature 34 °F 38 °F 68 °F (1997)
Min Temperature 15 °F 21 °F -2 °F (2001)
Degree Days  
Heating Degree Days 40    
Moisture  
Dew Point 17 °F    
Average Humidity 69    
Maximum Humidity 81    
Minimum Humidity 59    
Precipitation  
Precipitation 0.00 in - - ()
Sea Level Pressure  
Sea Level Pressure 30.22 in    
Wind  
Wind Speed 5 mph (WSW)    
Max Wind Speed 14 mph    
Max Gust Speed 16 mph    
Visibility 9 miles    
Events      
Averages and records for this station are not official NWS values.
T = Trace of Precipitation, MM = Missing Value Source: NWS Daily Summary

Daily Weather History Graph

Daily Weather History Graph

Search for Another Location

Airport:

Trip Planner

Search our weather history database for the weather conditions in past years. The results will help you decide how hot, cold, wet, or windy it might be!

Date:

Astronomy

Jan. 02, 2013 Rise Set
Actual Time 7:37 AM CST 5:07 PM CST
Civil Twilight 7:07 AM CST 5:37 PM CST
Nautical Twilight 6:34 AM CST 6:10 PM CST
Astronomical Twilight 6:02 AM CST 6:43 PM CST
Moon 10:38 PM CST (1/2) 10:22 AM CST (1/2)
Length of Visible Light 10h 29m
Length of Day
9h 29m
Waning Gibbous, 75% of the Moon is Illuminated
Jan 2
Waning Gibbous
Jan 4
Last Quarter
Jan 11
New
Jan 18
First Quarter
Jan 26
Full

Hourly Weather History & Observations

Time (CST) Temp. Windchill Dew Point Humidity Pressure Visibility Wind Dir Wind Speed Gust Speed Precip Events Conditions
12:54 AM 16.0 °F 10.4 °F 9.0 °F 74% 30.27 in 9.0 mi SW 3.5 mph - N/A   Clear
1:54 AM 17.1 °F - 9.0 °F 71% 30.27 in 9.0 mi Calm Calm - N/A   Clear
2:54 AM 16.0 °F 10.4 °F 9.0 °F 74% 30.26 in 7.0 mi WSW 3.5 mph - N/A   Clear
3:54 AM 16.0 °F - 10.0 °F 77% 30.25 in 8.0 mi Calm Calm - N/A   Clear
4:54 AM 15.1 °F 6.4 °F 10.0 °F 80% 30.23 in 7.0 mi SSW 5.8 mph - N/A   Clear
5:54 AM 16.0 °F - 10.9 °F 81% 30.23 in 7.0 mi Calm Calm - N/A   Clear
6:54 AM 17.1 °F - 12.0 °F 81% 30.22 in 6.0 mi Calm Calm - N/A   Haze
7:54 AM 17.1 °F 11.7 °F 12.0 °F 81% 30.21 in 5.0 mi SW 3.5 mph - N/A   Haze
8:54 AM 21.0 °F 12.4 °F 15.1 °F 78% 30.20 in 6.0 mi SSW 6.9 mph - N/A   Haze
9:54 AM 27.0 °F 21.6 °F 18.0 °F 69% 30.20 in 10.0 mi SSW 4.6 mph - N/A   Clear
10:54 AM 30.9 °F 20.7 °F 21.0 °F 67% 30.21 in 10.0 mi SW 13.8 mph - N/A   Clear
11:54 AM 32.0 °F 24.8 °F 21.9 °F 66% 30.19 in 10.0 mi SW 8.1 mph - N/A   Clear
12:54 PM 33.1 °F 24.4 °F 21.0 °F 61% 30.16 in 10.0 mi WSW 11.5 mph - N/A   Clear
1:54 PM 34.0 °F 26.0 °F 21.9 °F 61% 30.14 in 10.0 mi SW 10.4 mph - N/A   Clear
2:54 PM 34.0 °F 25.5 °F 21.9 °F 61% 30.14 in 10.0 mi West 11.5 mph - N/A   Mostly Cloudy
3:54 PM 34.0 °F 25.5 °F 21.0 °F 59% 30.16 in 10.0 mi WSW 11.5 mph 16.1 mph N/A   Mostly Cloudy
4:54 PM 32.0 °F 24.8 °F 21.0 °F 64% 30.17 in 9.0 mi SW 8.1 mph - N/A   Scattered Clouds
5:54 PM 32.0 °F 26.4 °F 19.9 °F 61% 30.21 in 10.0 mi WSW 5.8 mph - N/A   Overcast
6:09 PM 32.0 °F 26.4 °F 19.4 °F 60% 30.19 in 10.0 mi West 5.8 mph - N/A   Overcast
6:44 PM 30.2 °F 26.7 °F 19.4 °F 64% 30.19 in 10.0 mi NW 3.5 mph - N/A   Mostly Cloudy
6:54 PM 30.0 °F 25.2 °F 19.0 °F 64% 30.22 in 10.0 mi WNW 4.6 mph - N/A   Mostly Cloudy
7:54 PM 28.0 °F 22.8 °F 18.0 °F 66% 30.24 in 10.0 mi West 4.6 mph - N/A   Clear
8:54 PM 28.0 °F 22.8 °F 19.0 °F 69% 30.25 in 10.0 mi WSW 4.6 mph - N/A   Overcast
9:54 PM 28.0 °F 22.8 °F 19.9 °F 72% 30.26 in 10.0 mi SW 4.6 mph - N/A   Overcast
10:54 PM 28.0 °F 22.8 °F 19.9 °F 72% 30.27 in 9.0 mi WSW 4.6 mph - N/A   Overcast
11:54 PM 28.9 °F 25.2 °F 21.0 °F 72% 30.28 in 8.0 mi SW 3.5 mph - N/A   Overcast